Location: Peterborough
(44.3091°N, 78.3197°W)
Time: 06:34:19
(UTC-05:00)

A-11 Canister half - Pass Details

Date: 18 December 2023
Orbit: 1512 x 1687 km, 47.2° (Epoch: 25 February)

Event Time Altitude Azimuth Distance (km) Brightness Sun altitude
Rises 19:24:44 0° 208° (SSW) 4,640 11.9 -29.2°
Reaches altitude 10° 19:27:59 10° 200° (SSW) 3,667 11.2 -29.8°
Enters shadow 19:35:20 38° 149° (SSE) 2,196 9.5 -31.1°
